カタログに戻る

COSMOS 2087

運用中軍事HEO
NORAD 20707·PAYLOAD·🇷🇺 Russia

打ち上げ Jul 25, 1990 から Plesetsk Cosmodrome

Loading…

次のパス (今後24時間)

TLE

最新Source: Space-Track

元期: Sep 13, 2026, 04:23 UTC

1 20707U 90064A   26256.18326792 -.00000789  00000-0  00000-0 0  9999
2 20707  67.7578 179.6866 6315740  22.8930 355.8704  2.00388651264592

AllMySatでCOSMOS 2087をリアルタイム追跡

Download on the App Store